Regional Weather Roundup
Issued by NWS Jackson, KY

Home | Current Version | Previous Version | Graphics & Text | Print | Product List | Glossary On
Versions: 1 2 3 4 5 6 7 8 9 10 11 12 13 14 15 16 17 18 19 20 21 22 23 24 25 26 27 28
000
ASUS43 KJKL 262010
RWRJKL

EAST KENTUCKY HOURLY WEATHER ROUNDUP
NATIONAL WEATHER SERVICE JACKSON KY
400 PM EDT THU MAY 26 2016

NOTE: "FAIR" INDICATES FEW OR NO CLOUDS BELOW 12,000 FEET WITH
NO SIGNIFICANT WEATHER AND/OR OBSTRUCTIONS TO VISIBILITY.

* THESE REPORTS ARE NOT UNDER NWS QUALITY CONTROL AND MAY NOT
  REPORT WEATHER SUCH AS PRECIPITATION AND FOG.

KYZ079-080-083-085-087-088-110-112-115-119-120-262100
...EASTERN KENTUCKY...

CITY           SKY/WX    TMP DP  RH WIND       PRES   REMARKS
JACKSON          N/A     74  63  68 VRB5      30.12F
LONDON           N/A     77  64  64 S10       30.11F
SOMERSET*      PTSUNNY   79  66  65 S6        30.09S
MONTICELLO*    CLOUDY    82  71  69 E6        30.10S
WILLIAMSBURG*    N/A     79  66  65 S6        30.10S
MIDDLESBORO*     N/A     78  65  63 S5        30.12F
HARLAN APT*      N/A     72  63  73 CALM      30.14F
HAZARD APT*    PTCLDY    77  64  65 SW5       30.12F
BLACK MTN*       N/A    N/A N/A N/A SW2         N/A
PIKE CO APT*     N/A     73  67  79 S3        30.13F
BIG SANDY APT*   N/A     77  65  67 S9        30.11F
MOREHEAD APT*  MOCLDY    77  64  65 SW8       30.10F
ASHLAND*       CLOUDY    79  70  73 SW6       30.05F
$$

KYZ035-036-041-042-044-050-067-078-099-262100
...CENTRAL KENTUCKY...

CITY           SKY/WX    TMP DP  RH WIND       PRES   REMARKS
MT STERLING*   PTSUNNY  N/A N/A N/A SW10      30.09F
FLEMING/MASON* CLOUDY   N/A N/A N/A S9        30.07F
DANVILLE*      PTSUNNY   79  68  69 SW13      30.08F
RICHMOND*      PTSUNNY   79  66  65 SW9       30.08S
LEXINGTON      PTSUNNY   79  68  69 SW12G20   30.06F
FRANKFORT      TSTM      69  64  84 CALM      30.07R
LOUISVILLE     TSTM      68  64  87 SE10      30.04F
LEBANON*       LGT RAIN  68  64  88 NW12G25   30.12R
GLASGOW*       TSTM      66  66 100 N14G21    30.11R
BOWLING GREEN  TSTM      67  65  93 NE6       30.08F FOG
$$

KYZ091>093-OHZ055-061-077-WVZ005-015-034-035-042-262100
...SOUTHERN OHIO/WEST VIRGINIA...

CITY           SKY/WX    TMP DP  RH WIND       PRES   REMARKS
COVINGTON      TSTM      68  65  90 S8        30.02F
COLUMBUS       CLOUDY    79  65  62 S13       30.01F
DAYTON         PTSUNNY   76  66  71 S13       29.99F
WILMINGTON       N/A     77  66  68 S14       30.02F
HUNTINGTON     PTSUNNY   78  66  66 S8        30.08F
CHARLESTON       N/A     78  63  59 S10       30.11F
PINEVILLE*     CLOUDY    74  61  64 MISG      30.22F
BECKLEY        CLOUDY    69  62  78 SW8       30.20F
BLUEFIELD      CLOUDY    70  58  65 W10       30.22F
LOGAN CO APT*    N/A     72  64  78 SW6       30.14F
$$

VAZ002-007-008-TNZ017-027-036-066-071-262100
...SOUTHWEST VIRGINIA/EAST TENNESSEE...

CITY           SKY/WX    TMP DP  RH WIND       PRES   REMARKS
WISE*            N/A     75  52  43 SW5       30.21F
JONESVILLE*      N/A     72  64  78 CALM      30.18S
ABINGDON*      PTSUNNY   74  63  66 W6        30.19F
BRISTOL        PTSUNNY   72  63  73 CALM      30.17F
SEVIERVILLE*   CLEAR     77  64  65 E8        30.12F
KNOXVILLE        N/A     81  63  54 E10       30.11F
OAK RIDGE        N/A     82  63  52 VRB5      30.13F
CROSSVILLE       N/A     80  63  55 SE9       30.12F
NASHVILLE      PTSUNNY   90  63  40 S9G18     30.02F HX  91
$$

...KEY TO REMARKS...
VSB - VISIBILITY IN MILES
WCI - WIND CHILL INDEX
HX  - HEAT INDEX

$$




USA.gov is the U.S. government's official web portal to all federal, state and local government web resources and services.